Location: Mt. Graham
(32.7020°N, 109.8880°W)
Time: 15:10:47
(UTC-07:00)

Envisat - Visible Passes

Search period start: 17 June 2018 00:00
Search period end: 27 June 2018 00:00
Orbit: 764 x 766 km, 98.2° (Epoch: 17 June)

Date Brightness Start Highest point End Pass type
(mag) Time Alt. Az. Time Alt. Az. Time Alt. Az.
17 Jun 4.1 20:10:06 10° S 20:14:53 44° W 20:19:43 10° NNW visible
19 Jun 5.2 20:36:34 10° SSW 20:40:34 23° W 20:44:35 10° NW visible
20 Jun 3.7 19:58:45 10° S 20:03:43 58° W 20:08:42 10° NNW visible
21 Jun 5.7 21:04:21 10° WSW 21:06:20 12° W 21:08:20 10° WNW visible
22 Jun 4.8 20:24:56 10° SSW 20:29:21 30° W 20:33:48 10° NW visible
24 Jun 5.6 20:51:59 10° SW 20:55:06 16° W 20:58:12 10° NW visible
25 Jun 4.3 20:13:27 10° SSW 20:18:10 39° W 20:22:54 10° NNW visible
